Torna al catalogo

STARLINK-38042

AttivoComunicazioniSSO
NORAD 69991·PAYLOAD·🇺🇸 United States

Lanciato Jul 11, 2026 da Vandenberg Space Force Base

Loading…

Prossimi Passaggi (prossime 24 ore)

TLE

AggiornatoSource: CelesTrak SupGP

Epoca: Sep 14, 2026, 22:35 UTC

1 69991C 26159S   26257.94145833 -.01706100  00000+0 -31050-1 0  2579
2 69991  97.2848  99.6986 0001338  96.1950 353.2808 15.50409115    17

Traccia STARLINK-38042 in tempo reale con AllMySat

Download on the App Store